Volver al catálogo

SL-12 R/B(2)

ActivoHEO
NORAD 23845·ROCKET BODY·🇷🇺 Russia

Lanzado Apr 8, 1996 desde Baikonur Cosmodrome

Loading…

Próximos Pases (próximas 24 horas)

TLE

ActualizadoSource: Space-Track

Época: Sep 14, 2026, 21:58 UTC

1 23845U 96021D   26257.91576072 -.00000136  00000-0  00000-0 0  9990
2 23845   4.9870 221.5023 3968146 290.8023  42.4157  1.64338232182688

Sigue SL-12 R/B(2) en tiempo real con AllMySat

Download on the App Store